| time (UTC) | temp F | wind direction | speed knots | gust knots | rain 1hr in | rain 24hr in | rain mn in | humidity % | barometer mb |
| 20260507052143 | 53 | 264 | 2.6 | 7.8 | 0.00 | 0.00 | 0.00 | 92 | 1022.0 |
| 20260507051122 | 53 | 261 | 3.5 | 7.8 | 0.00 | 0.00 | 0.00 | 92 | 1022.1 |
| 20260507050122 | 53 | 290 | 4.3 | 8.7 | 0.00 | 0.00 | 0.00 | 92 | 1022.1 |
| 20260507045143 | 53 | 261 | 3.5 | 9.6 | 0.00 | 0.00 | 0.00 | 92 | 1022.1 |
| 20260507044122 | 53 | 269 | 3.5 | 9.6 | 0.00 | 0.00 | 0.00 | 92 | 1022.2 |
| 20260507043122 | 53 | 269 | 5.2 | 10.4 | 0.00 | 0.00 | 0.00 | 92 | 1022.1 |
| 20260507042122 | 53 | 267 | 4.3 | 9.6 | 0.00 | 0.00 | 0.00 | 92 | 1022.1 |
| 20260507041122 | 53 | 268 | 4.3 | 10.4 | 0.00 | 0.00 | 0.00 | 92 | 1021.9 |
| 20260507040122 | 53 | 260 | 3.5 | 7.8 | 0.00 | 0.00 | 0.00 | 91 | 1021.9 |
| 20260507035122 | 53 | 262 | 5.2 | 9.6 | 0.00 | 0.00 | 0.00 | 91 | 1021.8 |
| 20260507034143 | 53 | 265 | 4.3 | 7.8 | 0.00 | 0.00 | 0.00 | 91 | 1021.7 |
| 20260507033122 | 53 | 268 | 4.3 | 9.6 | 0.00 | 0.00 | 0.00 | 91 | 1021.7 |
| 20260507032122 | 54 | 253 | 4.3 | 7.8 | 0.00 | 0.00 | 0.00 | 91 | 1021.6 |
| 20260507031122 | 54 | 270 | 3.5 | 7.8 | 0.00 | 0.00 | 0.00 | 91 | 1021.5 |
| 20260507030122 | 54 | 260 | 5.2 | 9.6 | 0.00 | 0.00 | 0.00 | 91 | 1021.4 |
| 20260507025122 | 54 | 299 | 4.3 | 9.6 | 0.00 | 0.00 | 0.00 | 91 | 1021.4 |
| 20260507024145 | 54 | 267 | 5.2 | 13.0 | 0.00 | 0.00 | 0.00 | 90 | 1021.3 |
| 20260507023122 | 54 | 274 | 5.2 | 12.2 | 0.00 | 0.00 | 0.00 | 90 | 1021.3 |
| 20260507022122 | 54 | 279 | 4.3 | 9.6 | 0.00 | 0.00 | 0.00 | 90 | 1021.4 |
| 20260507021122 | 54 | 285 | 4.3 | 7.8 | 0.00 | 0.00 | 0.00 | 90 | 1021.3 |
| 20260507020122 | 54 | 314 | 4.3 | 7.8 | 0.00 | 0.00 | 0.00 | 90 | 1021.4 |
| 20260507015122 | 54 | 269 | 4.3 | 8.7 | 0.00 | 0.00 | 0.00 | 90 | 1021.5 |
| 20260507014122 | 54 | 278 | 6.1 | 11.3 | 0.00 | 0.00 | 0.00 | 90 | 1021.5 |
| 20260507013122 | 55 | 271 | 4.3 | 9.6 | 0.00 | 0.00 | 0.00 | 89 | 1021.5 |
| 20260507012143 | 54 | 291 | 5.2 | 10.4 | 0.00 | 0.00 | 0.00 | 89 | 1021.5 |
| 20260507011122 | 55 | 294 | 6.1 | 11.3 | 0.00 | 0.00 | 0.00 | 89 | 1021.7 |
| 20260507010122 | 55 | 280 | 5.2 | 10.4 | 0.00 | 0.00 | 0.00 | 89 | 1021.6 |
| 20260507005122 | 55 | 264 | 6.1 | 10.4 | 0.00 | 0.00 | 0.00 | 89 | 1021.5 |
| 20260507004122 | 55 | 277 | 6.1 | 12.2 | 0.00 | 0.00 | 0.00 | 89 | 1021.6 |
| 20260507003122 | 55 | 274 | 5.2 | 12.2 | 0.00 | 0.00 | 0.00 | 89 | 1021.4 |
| 20260507002122 | 55 | 262 | 6.1 | 11.3 | 0.00 | 0.00 | 0.00 | 89 | 1021.4 |
| 20260507001122 | 55 | 334 | 7.0 | 9.6 | 0.00 | 0.00 | 0.00 | 89 | 1021.7 |
| 20260507000122 | 55 | 283 | 6.1 | 12.2 | 0.00 | 0.00 | 0.00 | 88 | 1021.6 |
| 20260506235122 | 55 | 259 | 7.0 | 13.0 | 0.00 | 0.00 | 0.00 | 88 | 1021.6 |
| 20260506234122 | 56 | 281 | 6.1 | 12.2 | 0.00 | 0.00 | 0.00 | 88 | 1021.6 |
| 20260506233122 | 56 | 269 | 5.2 | 13.0 | 0.00 | 0.00 | 0.00 | 88 | 1021.6 |
| 20260506232122 | 56 | 276 | 5.2 | 12.2 | 0.00 | 0.00 | 0.00 | 88 | 1021.5 |
| 20260506231122 | 56 | 288 | 4.3 | 8.7 | 0.00 | 0.00 | 0.00 | 88 | 1021.6 |
| 20260506230122 | 56 | 269 | 6.1 | 11.3 | 0.00 | 0.00 | 0.00 | 88 | 1021.7 |
| 20260506225122 | 56 | 277 | 5.2 | 10.4 | 0.00 | 0.00 | 0.00 | 88 | 1021.7 |
| 20260506224122 | 56 | 287 | 5.2 | 9.6 | 0.00 | 0.00 | 0.00 | 87 | 1021.9 |
| 20260506223122 | 56 | 271 | 7.0 | 13.0 | 0.00 | 0.00 | 0.00 | 87 | 1022.1 |
| 20260506222128 | 57 | 283 | 4.3 | 8.7 | 0.00 | 0.00 | 0.00 | 87 | 1022.0 |
| 20260506222123 | 57 | 281 | 4.3 | 8.7 | 0.00 | 0.00 | 0.00 | 87 | 1022.0 |
| 20260506221122 | 57 | 280 | 6.1 | 12.2 | 0.00 | 0.00 | 0.00 | 86 | 1022.1 |
| 20260506220122 | 57 | 295 | 6.1 | 11.3 | 0.00 | 0.00 | 0.00 | 86 | 1022.4 |
| 20260506215122 | 57 | 293 | 5.2 | 10.4 | 0.00 | 0.00 | 0.00 | 86 | 1022.4 |
| 20260506214122 | 57 | 272 | 6.1 | 10.4 | 0.00 | 0.00 | 0.00 | 85 | 1022.4 |
| 20260506213122 | 58 | 268 | 6.1 | 11.3 | 0.00 | 0.00 | 0.00 | 85 | 1022.5 |
| 20260506212122 | 58 | 259 | 5.2 | 11.3 | 0.00 | 0.00 | 0.00 | 85 | 1022.6 |
| 20260506211122 | 58 | 286 | 7.0 | 7.0 | 0.00 | 0.00 | 0.00 | 85 | 1022.4 |
| 20260506210122 | 58 | 298 | 5.2 | 8.7 | 0.00 | 0.00 | 0.00 | 85 | 1022.5 |
| 20260506205122 | 58 | 274 | 6.1 | 10.4 | 0.00 | 0.00 | 0.00 | 85 | 1022.5 |
| 20260506204122 | 58 | 280 | 5.2 | 10.4 | 0.00 | 0.00 | 0.00 | 85 | 1022.6 |
| 20260506203122 | 58 | 264 | 6.1 | 11.3 | 0.00 | 0.00 | 0.00 | 84 | 1022.6 |
| 20260506202122 | 59 | 259 | 5.2 | 11.3 | 0.00 | 0.00 | 0.00 | 84 | 1022.7 |
| 20260506201122 | 58 | 262 | 5.2 | 9.6 | 0.00 | 0.00 | 0.00 | 83 | 1022.7 |
| 20260506200122 | 59 | 262 | 5.2 | 10.4 | 0.00 | 0.00 | 0.00 | 83 | 1022.7 |
| 20260506195144 | 59 | 267 | 4.3 | 7.8 | 0.00 | 0.00 | 0.00 | 83 | 1022.8 |
| 20260506194122 | 59 | 260 | 5.2 | 9.6 | 0.00 | 0.00 | 0.00 | 84 | 1022.8 |
| 20260506193143 | 58 | 260 | 4.3 | 9.6 | 0.00 | 0.00 | 0.00 | 85 | 1023.0 |
| 20260506192122 | 58 | 256 | 6.1 | 11.3 | 0.00 | 0.00 | 0.00 | 84 | 1023.0 |
| 20260506191122 | 58 | 258 | 5.2 | 9.6 | 0.00 | 0.00 | 0.00 | 84 | 1023.1 |
| 20260506190122 | 58 | 264 | 5.2 | 10.4 | 0.00 | 0.00 | 0.00 | 84 | 1023.2 |
| 20260506185122 | 58 | 262 | 4.3 | 7.8 | 0.00 | 0.00 | 0.00 | 85 | 1023.0 |
| 20260506184122 | 57 | 256 | 5.2 | 7.8 | 0.00 | 0.00 | 0.00 | 85 | 1023.1 |
| 20260506183122 | 57 | 271 | 3.5 | 7.8 | 0.00 | 0.00 | 0.00 | 86 | 1023.2 |
| 20260506182143 | 56 | 252 | 4.3 | 9.6 | 0.00 | 0.00 | 0.00 | 86 | 1023.2 |
| 20260506181122 | 56 | 326 | 4.3 | 7.8 | 0.00 | 0.00 | 0.00 | 86 | 1023.2 |
| 20260506180122 | 57 | 267 | 3.5 | 7.8 | 0.00 | 0.00 | 0.00 | 86 | 1023.1 |
| 20260506175143 | 56 | 260 | 4.3 | 8.7 | 0.00 | 0.00 | 0.00 | 86 | 1023.1 |
| 20260506174122 | 56 | 272 | 4.3 | 9.6 | 0.00 | 0.00 | 0.00 | 86 | 1023.0 |
| 20260506173122 | 56 | 269 | 3.5 | 6.1 | 0.00 | 0.00 | 0.00 | 87 | 1023.0 |
| 20260506172123 | 56 | 293 | 3.5 | 7.0 | 0.00 | 0.00 | 0.00 | 87 | 1023.0 |
| 20260506171143 | 56 | 266 | 3.5 | 8.7 | 0.00 | 0.00 | 0.00 | 87 | 1023.0 |
| 20260506170122 | 56 | 254 | 4.3 | 9.6 | 0.00 | 0.00 | 0.00 | 87 | 1023.0 |
| 20260506165143 | 56 | 314 | 2.6 | 6.1 | 0.00 | 0.00 | 0.00 | 87 | 1023.0 |
| 20260506164143 | 56 | 270 | 3.5 | 7.8 | 0.00 | 0.00 | 0.00 | 87 | 1023.0 |
| 20260506163143 | 55 | 252 | 2.6 | 7.0 | 0.00 | 0.00 | 0.00 | 87 | 1023.0 |
| 20260506162122 | 55 | 256 | 3.5 | 6.1 | 0.00 | 0.00 | 0.00 | 87 | 1023.0 |
| 20260506161122 | 55 | 255 | 1.7 | 3.5 | 0.00 | 0.00 | 0.00 | 88 | 1023.0 |
| 20260506160122 | 55 | 258 | 2.6 | 5.2 | 0.00 | 0.00 | 0.00 | 88 | 1023.0 |
| 20260506155122 | 55 | 257 | 1.7 | 3.5 | 0.00 | 0.00 | 0.00 | 88 | 1023.0 |
| 20260506154143 | 55 | 257 | 2.6 | 5.2 | 0.00 | 0.00 | 0.00 | 88 | 1022.9 |
| 20260506153122 | 55 | 255 | 3.5 | 5.2 | 0.00 | 0.00 | 0.00 | 88 | 1022.8 |
| 20260506152143 | 55 | 269 | 1.7 | 6.1 | 0.00 | 0.00 | 0.00 | 88 | 1022.9 |
| 20260506151122 | 55 | 315 | 2.6 | 3.5 | 0.00 | 0.00 | 0.00 | 87 | 1022.8 |
| 20260506150122 | 55 | 313 | 1.7 | 3.5 | 0.00 | 0.00 | 0.00 | 87 | 1022.9 |
| 20260506145122 | 55 | 302 | 1.7 | 4.3 | 0.00 | 0.00 | 0.00 | 87 | 1022.8 |
| 20260506144122 | 55 | 305 | 2.6 | 4.3 | 0.00 | 0.00 | 0.00 | 87 | 1022.7 |
| 20260506143122 | 55 | 289 | 1.7 | 3.5 | 0.00 | 0.00 | 0.00 | 86 | 1022.7 |
| 20260506142122 | 55 | 285 | 1.7 | 5.2 | 0.00 | 0.00 | 0.00 | 86 | 1022.6 |
| 20260506141122 | 55 | 333 | 0.9 | 2.6 | 0.00 | 0.00 | 0.00 | 85 | 1022.5 |
| 20260506140122 | 55 | 334 | 2.6 | 4.3 | 0.00 | 0.00 | 0.00 | 85 | 1022.3 |
| 20260506135122 | 54 | 346 | 1.7 | 4.3 | 0.00 | 0.00 | 0.00 | 85 | 1022.1 |
| 20260506134122 | 54 | 296 | 2.6 | 6.1 | 0.00 | 0.00 | 0.00 | 86 | 1022.1 |
| 20260506133122 | 54 | 312 | 1.7 | 5.2 | 0.00 | 0.00 | 0.00 | 86 | 1022.1 |
| 20260506132122 | 54 | 302 | 2.6 | 4.3 | 0.00 | 0.00 | 0.00 | 86 | 1021.9 |
| 20260506131122 | 54 | 323 | 2.6 | 4.3 | 0.00 | 0.00 | 0.00 | 86 | 1021.8 |
| 20260506130143 | 54 | 290 | 1.7 | 6.1 | 0.00 | 0.00 | 0.00 | 86 | 1021.8 |
| 20260506125122 | 54 | 284 | 1.7 | 3.5 | 0.00 | 0.00 | 0.00 | 86 | 1021.8 |
| 20260506124122 | 54 | 300 | 1.7 | 2.6 | 0.00 | 0.00 | 0.00 | 86 | 1021.7 |
| 20260506123122 | 54 | 300 | 1.7 | 3.5 | 0.00 | 0.00 | 0.00 | 86 | 1021.6 |
| 20260506122122 | 55 | 293 | 1.7 | 3.5 | 0.00 | 0.00 | 0.00 | 86 | 1021.6 |
| 20260506121122 | 55 | 253 | 2.6 | 2.6 | 0.00 | 0.00 | 0.00 | 86 | 1021.5 |
| 20260506120143 | 55 | 256 | 2.6 | 6.1 | 0.00 | 0.00 | 0.00 | 86 | 1021.4 |
| 20260506115122 | 55 | 251 | 2.6 | 7.0 | 0.00 | 0.00 | 0.00 | 87 | 1021.4 |
| 20260506114143 | 55 | 256 | 1.7 | 4.3 | 0.00 | 0.00 | 0.00 | 86 | 1021.3 |
| 20260506113122 | 54 | 255 | 1.7 | 3.5 | 0.00 | 0.00 | 0.00 | 86 | 1021.3 |
| 20260506112122 | 54 | 252 | 0.0 | 1.7 | 0.00 | 0.00 | 0.00 | 86 | 1021.4 |
| 20260506111122 | 54 | 253 | 2.6 | 6.1 | 0.00 | 0.00 | 0.00 | 86 | 1021.3 |
| 20260506110122 | 55 | 257 | 1.7 | 3.5 | 0.00 | 0.00 | 0.00 | 87 | 1021.2 |
| 20260506105122 | 55 | 263 | 1.7 | 3.5 | 0.00 | 0.00 | 0.00 | 87 | 1021.1 |
| 20260506104122 | 55 | 266 | 1.7 | 5.2 | 0.00 | 0.00 | 0.00 | 86 | 1021.1 |
| 20260506103122 | 55 | 261 | 2.6 | 6.1 | 0.00 | 0.00 | 0.00 | 87 | 1021.2 |
| 20260506102122 | 55 | 251 | 1.7 | 3.5 | 0.00 | 0.00 | 0.00 | 87 | 1021.1 |
| 20260506101122 | 55 | 250 | 1.7 | 3.5 | 0.00 | 0.00 | 0.00 | 87 | 1021.2 |
| 20260506100122 | 55 | 252 | 2.6 | 6.1 | 0.00 | 0.00 | 0.00 | 87 | 1021.1 |
| 20260506095143 | 55 | 259 | 1.7 | 6.1 | 0.00 | 0.01 | 0.00 | 87 | 1021.2 |
| 20260506094122 | 55 | 262 | 2.6 | 6.1 | 0.00 | 0.01 | 0.00 | 88 | 1021.2 |
| 20260506093122 | 55 | 266 | 0.9 | 3.5 | 0.00 | 0.01 | 0.00 | 88 | 1021.2 |
| 20260506092122 | 55 | 264 | 2.6 | 5.2 | 0.00 | 0.01 | 0.00 | 88 | 1021.1 |
| 20260506091122 | 55 | 254 | 0.9 | 2.6 | 0.00 | 0.01 | 0.00 | 88 | 1021.0 |
| 20260506090122 | 55 | 250 | 2.6 | 4.3 | 0.00 | 0.01 | 0.00 | 88 | 1021.1 |
| 20260506085122 | 55 | 262 | 1.7 | 6.1 | 0.00 | 0.07 | 0.00 | 88 | 1021.0 |
| 20260506084122 | 55 | 301 | 1.7 | 4.3 | 0.00 | 0.07 | 0.00 | 88 | 1021.1 |
| 20260506083143 | 55 | 245 | 1.7 | 4.3 | 0.00 | 0.07 | 0.00 | 89 | 1021.1 |
| 20260506082122 | 55 | 309 | 1.7 | 4.3 | 0.00 | 0.07 | 0.00 | 89 | 1021.2 |
| 20260506081123 | 55 | 276 | 2.6 | 6.1 | 0.00 | 0.07 | 0.00 | 89 | 1021.2 |
| 20260506080122 | 55 | 259 | 1.7 | 3.5 | 0.00 | 0.07 | 0.00 | 89 | 1021.2 |
| 20260506073143 | 55 | 262 | 1.7 | 3.5 | 0.00 | 0.10 | 0.00 | 89 | 1020.8 |
| 20260506072122 | 55 | 261 | 1.7 | 5.2 | 0.00 | 0.10 | 0.00 | 89 | 1020.8 |
| 20260506071122 | 55 | 259 | 2.6 | 5.2 | 0.00 | 0.10 | 0.00 | 89 | 1020.8 |
| 20260506070122 | 55 | 261 | 1.7 | 5.2 | 0.00 | 0.10 | 0.00 | 89 | 1020.7 |
| 20260506062122 | 55 | 261 | 1.7 | 3.5 | 0.00 | 0.11 | 0.10 | 89 | 1020.5 |
| 20260506061122 | 55 | 260 | 1.7 | 5.2 | 0.00 | 0.11 | 0.10 | 89 | 1020.4 |
| 20260506060123 | 55 | 255 | 1.7 | 4.3 | 0.00 | 0.11 | 0.10 | 89 | 1020.4 |